Weather History for KCOU - November, 2014

Change the Weather History Date:

Monday, November 10, 2014

  Actual Average Record
Temperature  
Mean Temperature 60 °F 47 °F  
Max Temperature 73 °F 57 °F 79 °F (1949)
Min Temperature 46 °F 37 °F 18 °F (1962)
Degree Days  
Heating Degree Days 5 18  
Month to date heating degree days 167 160  
Since 1 July heating degree days 461 525  
Cooling Degree Days 0 0  
Month to date cooling degree days 0 0  
Year to date cooling degree days 1266 1247  
Growing Degree Days 10 (Base 50)    
Moisture  
Dew Point 42 °F    
Average Humidity 55    
Maximum Humidity 76    
Minimum Humidity 33    
Precipitation  
Precipitation 0.00 in 0.11 in 0.99 in (1995)
Month to date precipitation 0.29 1.05  
Year to date precipitation 40.91 37.98  
Snow  
Snow 0.00 in 0.00 in 1.20 in (1995)
Month to date snowfall 0.0 0.1  
Since 1 July snowfall 0.0 0.1  
Since 1 September snowfall 0.0 0.1  
Snow Depth 0.00 in    
Sea Level Pressure  
Sea Level Pressure 29.58 in    
Wind  
Wind Speed 14 mph (South)    
Max Wind Speed 29 mph    
Max Gust Speed 39 mph    
Visibility 10 miles    
Events      
T = Trace of Precipitation, MM = Missing Value Source: NWS Daily Summary

Daily Weather History Graph

Daily Weather History Graph

Search for Another Location

Airport or City:

Trip Planner

Search our weather history database for the weather conditions in past years. The results will help you decide how hot, cold, wet, or windy it might be!

Date:

Astronomy

Nov. 10, 2014 Rise Set
Actual Time 6:45 AM CST 4:59 PM CST
Civil Twilight 6:17 AM CST 5:27 PM CST
Nautical Twilight 5:45 AM CST 5:59 PM CST
Astronomical Twilight 5:14 AM CST 6:30 PM CST
Moon 8:27 PM CST (11/10) 10:08 AM CST (11/10)
Length of Visible Light 11h 09m
Length of Day
10h 13m
Waning Gibbous, 84% of the Moon is Illuminated
Nov 10
Waning Gibbous
Nov 14
Last Quarter
Nov 22
New
Nov 29
First Quarter
Dec 6
Full

Hourly Weather History & Observations

Time (CST) Temp. Dew Point Humidity Pressure Visibility Wind Dir Wind Speed Gust Speed Precip Events Conditions
12:54 AM 48.9 °F 36.0 °F 61% 29.73 in 10.0 mi South 10.4 mph - N/A   Clear
1:54 AM 48.9 °F 37.0 °F 64% 29.72 in 10.0 mi SSE 11.5 mph - N/A   Clear
2:54 AM 48.0 °F 37.9 °F 68% 29.70 in 10.0 mi SSE 11.5 mph - N/A   Clear
3:54 AM 46.9 °F 37.9 °F 71% 29.68 in 10.0 mi SE 10.4 mph - N/A   Clear
4:54 AM 46.9 °F 39.0 °F 74% 29.67 in 10.0 mi SSE 13.8 mph - N/A   Clear
5:54 AM 46.9 °F 39.0 °F 74% 29.65 in 10.0 mi SSE 11.5 mph - N/A   Clear
6:54 AM 48.0 °F 39.9 °F 74% 29.62 in 10.0 mi SSE 13.8 mph - N/A   Clear
7:54 AM 50.0 °F 41.0 °F 71% 29.62 in 10.0 mi SSE 15.0 mph - N/A   Clear
8:54 AM 54.0 °F 42.1 °F 64% 29.60 in 10.0 mi SSE 15.0 mph - N/A   Clear
9:54 AM 61.0 °F 44.1 °F 54% 29.57 in 10.0 mi South 19.6 mph 26.5 mph N/A   Clear
10:54 AM 66.0 °F 45.0 °F 47% 29.53 in 10.0 mi SSE 20.7 mph 26.5 mph N/A   Clear
11:54 AM 70.0 °F 44.1 °F 39% 29.49 in 10.0 mi South 21.9 mph 28.8 mph N/A   Clear
12:54 PM 71.1 °F 44.1 °F 38% 29.45 in 10.0 mi South 24.2 mph 34.5 mph N/A   Clear
1:54 PM 73.0 °F 43.0 °F 34% 29.44 in 10.0 mi South 26.5 mph 36.8 mph N/A   Clear
2:54 PM 72.0 °F 44.1 °F 37% 29.43 in 10.0 mi SSW 20.7 mph 31.1 mph N/A   Clear
3:54 PM 72.0 °F 45.0 °F 38% 29.44 in 10.0 mi South 18.4 mph 24.2 mph N/A   Clear
4:54 PM 66.0 °F 45.0 °F 47% 29.47 in 10.0 mi South 9.2 mph - N/A   Clear
5:54 PM 63.0 °F 43.0 °F 48% 29.51 in 10.0 mi SSW 5.8 mph - N/A   Clear
6:54 PM 64.9 °F 44.1 °F 47% 29.53 in 10.0 mi South 8.1 mph - N/A   Overcast
7:54 PM 64.9 °F 42.1 °F 43% 29.55 in 10.0 mi WSW 6.9 mph - N/A   Overcast
8:54 PM 64.0 °F 43.0 °F 46% 29.57 in 10.0 mi South 9.2 mph - N/A   Overcast
9:54 PM 64.0 °F 43.0 °F 46% 29.57 in 10.0 mi South 8.1 mph - N/A   Overcast
10:54 PM 63.0 °F 44.1 °F 50% 29.60 in 8.0 mi West 11.5 mph - N/A   Overcast
11:54 PM 51.1 °F 41.0 °F 68% 29.66 in 10.0 mi NW 19.6 mph 28.8 mph N/A   Overcast